Regional Weather Roundup
Issued by NWS

Home | Current Version | Previous Version | Text Only | Print | Product List | Glossary On
Versions: 1 2 3 4 5 6 7 8 9 10 11 12 13 14 15 16 17 18 19 20 21 22 23 24 25 26 27 28 29 30 31 32 33 34 35 36 37 38 39 40 41 42 43 44 45 46 47 48 49 50
000
ASUS44 KEWX 011211
RWRTX
SOUTH TEXAS REGIONAL WEATHER ROUNDUP
NATIONAL WEATHER SERVICE AUSTIN/SAN ANTONIO TX
700 AM CDT SUN MAY 01 2016

NOTE: "FAIR" INDICATED FEW OR NO CLOUDS BELOW 12,000 FEET WITH NO
SIGNIFICANT WEATHER AND/OR OBSTRUCTIONS TO VISIBILITY.

* - THESE STATIONS ARE NOT NWS OR FAA STATIONS...AND ARE NOT SUBJECT
    TO NWS AND FAA QUALITY CONTROL.

TXZ171-172-183>190-011300-
TEXAS HILL COUNTRY AND EDWARDS PLATEAU

CITY           SKY/WX    TMP DP  RH WIND       PRES   REMARKS
JUNCTION       MOCLDY    62  58  86 NE8       29.91R
6HR MIN TEMP:  59; 6HR MAX TEMP:  64;

*LLANO         PTCLDY    63  59  88 E6        29.93R
BURNET         CLEAR     62  58  86 NE13      29.90R
6HR MIN TEMP:  62; 6HR MAX TEMP:  67;

*HORSESHOE BAY CLOUDY    63  61  92 NE3       29.88R
6HR MIN TEMP:  60; 6HR MAX TEMP:  68;

*KERRVILLE     CLOUDY    62  60  94 CALM      29.89R
6HR MIN TEMP:  56; 6HR MAX TEMP:  63;

*FREDERICKSBRG CLOUDY    62  59  90 NE3       29.90R
6HR MIN TEMP:  60; 6HR MAX TEMP:  64;

*ROCKSPRINGS   PTCLDY    61  61 100 E6        29.91R FOG
*BOERNE STAGE  CLOUDY    63  61  94 N7        29.88R
*CASTROVILLE   CLOUDY    69  63  81 E3        29.86R
HONDO          MOCLDY    67  64  90 NE12      29.86R
6HR MIN TEMP:  66; 6HR MAX TEMP:  69;

*UVALDE        CLOUDY    68  64  87 E6        29.85R
6HR MIN TEMP:  64; 6HR MAX TEMP:  68;

DEL RIO        CLOUDY    70  65  84 E10G17    29.81R
6HR MIN TEMP:  62; 6HR MAX TEMP:  70;

LAUGHLIN AFB   PTCLDY    69  65  86 SE12      29.81R
6HR MIN TEMP:  66; 6HR MAX TEMP:  70;

CARRIZO SPRGS  CLOUDY    72  68  88 E3        29.79R
*EAGLE PASS    CLOUDY    72  64  78 E8        29.81R
$$

TXZ173-191>194-202-209-217>225-228-011300-
CENTRAL AND SOUTH CENTRAL TEXAS

CITY           SKY/WX    TMP DP  RH WIND       PRES   REMARKS
GEORGETOWN     CLEAR     61  63 100 N5        29.87
AUSTIN/BERGSTM CLOUDY    66  63  90 N10       29.84R
6HR MIN TEMP:  64; 6HR MAX TEMP:  71;

AUSTIN/MABRY   CLOUDY    67  62  84 VRB6      29.86R
6HR MIN TEMP:  66; 6HR MAX TEMP:  71;

*AUSTIN/EXEC   CLOUDY    64  64 100 N8        29.87R
*LAGO VISTA    CLEAR     63  61  93 NE10      29.88R
6HR MIN TEMP:  63; 6HR MAX TEMP:  68;

SAN MARCOS     PTCLDY    64  63  94 NE10      29.83R
6HR MIN TEMP:  64; 6HR MAX TEMP:  68;

NEW BRAUNFELS  MOCLDY    68  64  87 NE10      29.82R
6HR MIN TEMP:  67; 6HR MAX TEMP:  71;

RANDOLPH AFB   CLOUDY    68  66  94 NE7       29.83R FOG
PT SAN ANTONIO CLOUDY    69  64  86 N7        29.83R
6HR MIN TEMP:  69; 6HR MAX TEMP:  72;

SAN ANTONIO    CLOUDY    68  63  84 NE6       29.84R
6HR MIN TEMP:  67; 6HR MAX TEMP:  71;

STINSON FIELD  CLOUDY    70  64  81 NE12      29.81R
6HR MIN TEMP:  70; 6HR MAX TEMP:  74;

*PLEASANTON    CLOUDY    71  65  82 NE7       29.82R
6HR MIN TEMP:  70; 6HR MAX TEMP:  73;

*LA GRANGE       N/A     70  66  85 NE3       29.80R
6HR MIN TEMP:  70; 6HR MAX TEMP:  74;

*GIDDINGS      CLEAR     66  64  91 NE6       29.86R
6HR MIN TEMP:  66; 6HR MAX TEMP:  70;

*GONZALES      PTCLDY    69  67  93 NE5       29.80R
6HR MIN TEMP:  69; 6HR MAX TEMP:  73;

$$

TXZ163>164-176>182-195>201-210>213-226-227-235-011300-
SOUTHEAST TEXAS

CITY           SKY/WX    TMP DP  RH WIND       PRES   REMARKS
COLLEGE STN    CLEAR     68  64  87 NE12      29.81S
6HR MIN TEMP:  68; 6HR MAX TEMP:  72;

*BRYAN         CLEAR     65  65 100 N7        29.84S
6HR MIN TEMP:  65; 6HR MAX TEMP:  69;

*CALDWELL      CLEAR     64  64 100 N7        29.86R
*CROCKETT      CLEAR     64  63  94 NE7       29.88R
*BRENHAM       CLEAR     70  65  84 NE6       29.82R
6HR MIN TEMP:  70; 6HR MAX TEMP:  73;

HUNTSVILLE     CLEAR     67  64  90 CALM      29.83R
6HR MIN TEMP:  67; 6HR MAX TEMP:  71;

CONROE         CLEAR     69  65  86 NE5       29.82S
6HR MIN TEMP:  69; 6HR MAX TEMP:  73; 6HR PCP:  0.01;

HOUSTON BUSH   MOCLDY    71  67  87 N8        29.80R
6HR MIN TEMP:  71; 6HR MAX TEMP:  74;

HOUSTON HOBBY  CLOUDY    75  72  90 N9        29.78S
6HR MIN TEMP:  75; 6HR MAX TEMP:  78; 6HR PCP: TRACE;

*HOUSTON SW AP CLOUDY    74  72  93 N8        29.79R FOG
6HR MIN TEMP:  74; 6HR MAX TEMP:  76;

PEARLAND       CLOUDY    77  74  90 N8        29.79R FOG
6HR MIN TEMP:  77; 6HR MAX TEMP:  79; 6HR PCP: TRACE;

HOUSTON HOOKS  PTCLDY    71  67  87 NE7       29.81R
6HR MIN TEMP:  71; 6HR MAX TEMP:  76; 6HR PCP:  0.02;

ELLINGTON FLD  CLOUDY    75  73  94 N7        29.80S FOG
SUGAR LAND     CLOUDY    73  69  87 NE9       29.78S
6HR MIN TEMP:  73; 6HR MAX TEMP:  77; 6HR PCP: TRACE;

*HOUSTON EXEC  MOCLDY    70  66  88 NE10      29.80S FOG
*CLEVELAND MUN CLEAR     69  67  93 N3        29.82S
6HR MIN TEMP:  69; 6HR MAX TEMP:  75;

*WHARTON       MOCLDY    73  71  93 NE7       29.78R
6HR MIN TEMP:  73; 6HR MAX TEMP:  75;

*COLUMBUS      MOCLDY    70  65  85 NE6       29.80R
6HR MIN TEMP:  70; 6HR MAX TEMP:  74;

*EAGLE LAKE    MOSUNNY   69  66  91 NE7       29.79R
6HR MIN TEMP:  69; 6HR MAX TEMP:  74;

$$

TXZ214>216-236>238-011300-
THE UPPER TEXAS COAST

CITY           SKY/WX    TMP DP  RH WIND       PRES   REMARKS
*ORANGE        TSTM      70  67  90 NE7       29.80S
6HR MIN TEMP:  70; 6HR MAX TEMP:  77; 6HR PCP:  0.28;

PORT ARTHUR    TSTM      72  70  93 N16G23    29.79R
6HR MIN TEMP:  68; 6HR MAX TEMP:  78; 6HR PCP:  1.16;

GALVESTON      LGT RAIN  77  77 100 S7        29.78S FOG
6HR MIN TEMP:  77; 6HR MAX TEMP:  77; 6HR PCP:  0.01;

ANGLETON       LGT RAIN  78  77  96 CALM      29.77R FOG
6HR MIN TEMP:  77; 6HR MAX TEMP:  78; 6HR PCP:  0.03;

*BAY CITY      CLOUDY    77  77 100 NE5       29.76S FOG
PALACIOS       NOT AVBL
$$

TXZ229>234-239>247-011300-
TEXAS COASTAL BEND AND RIO GRANDE PLAINS

CITY           SKY/WX    TMP DP  RH WIND       PRES   REMARKS
VICTORIA       CLOUDY    73  71  93 NE9       29.77R FOG
6HR MIN TEMP:  73; 6HR MAX TEMP:  76;

*BEEVILLE      CLOUDY    68  68 100 CALM      29.78R FOG
6HR MIN TEMP:  67; 6HR MAX TEMP:  74;

ROCKPORT       CLOUDY    79  75  87 E10       29.74R
6HR MIN TEMP:  78; 6HR MAX TEMP:  80;

*PORT ARANSAS  CLOUDY    77  77 100 E5        29.74R FOG
6HR MIN TEMP:  76; 6HR MAX TEMP:  78;

*PORT LAVACA   CLOUDY    76  76  98 NE9       29.76R FOG
6HR MIN TEMP:  75; 6HR MAX TEMP:  77;

*INGLESIDE     CLOUDY    67  65  92 E5        29.75R
CORPUS CHRISTI MOCLDY    79  75  87 E5        29.75R
6HR MIN TEMP:  78; 6HR MAX TEMP:  79;

CORPUS NAS     CLOUDY    79  78  97 E6        29.74R FOG
6HR MIN TEMP:  78; 6HR MAX TEMP:  79;

*ROBSTOWN      CLOUDY    77  75  94 N3        29.76R FOG
6HR MIN TEMP:  76; 6HR MAX TEMP:  78;

ALICE          CLOUDY    75  73  93 NE6       29.76R FOG
6HR MIN TEMP:  73; 6HR MAX TEMP:  75;

KINGSVILLE NAS CLOUDY    75  75 100 N5        29.75R FOG
6HR MIN TEMP:  74; 6HR MAX TEMP:  76;

COTULLA        CLOUDY    75  70  84 NE10      29.80R
6HR MIN TEMP:  74; 6HR MAX TEMP:  76;

*FAITH RANCH     N/A    N/A N/A N/A MISG        N/A
LAREDO         CLOUDY    74  70  87 E6        29.77R
6HR MIN TEMP:  73; 6HR MAX TEMP:  76;

$$

TXZ248>255-011300-
DEEP SOUTH TEXAS

CITY           SKY/WX    TMP DP  RH WIND       PRES   REMARKS
BROWNSVILLE    CLOUDY    76  76 100 E3        29.73R FOG
6HR MIN TEMP:  77; 6HR MAX TEMP:  78;

PORT ISABEL    CLOUDY    78  77  96 SE7       29.73R FOG
6HR MIN TEMP:  78; 6HR MAX TEMP:  80;

*SOUTH PAC1F1C2F2C3F3C4F4C5F5C6F6C7M1C8M2C9!



USA.gov is the U.S. government's official web portal to all federal, state and local government web resources and services.